Weather in Maksy

Russia / Ryazan Oblast     53°42′33″N   41°17′18″E
temp.,
°C
wind,
m/s
gust,
m/s
humid.,
%
clouds,
%
prec.,
mm/h
press.,
hPa
HPBL,
m
28 february, sun
sun2800:00−12nnw369691 0.0 1013138
03:00−13nw239656 0.0 101468
06:00−13nw239657 0.0 101576
09:00−10nw359468 0.1 1015259
12:00−8nw358996 0.1 1015474
15:00−6nnw358998 0.1 1016520
18:00−7nnw2592100 0.1 1017151
21:00−8n2495100 0.1 1019144
1 march, mon
mon100:00−8n1196100 0.1 102123
03:00−8n1296100 0.1 102342
06:00−12n129697 0.0 102321
09:00−10wnw119584 0.1 102547
12:00−5wsw239385 0.0 1024268
15:00−4wsw469490 0.0 1024352
18:00−5wsw499694 0.0 1022341
21:00−3wsw5119496 0.1 1020400
2 march, tue
tue200:00−2wsw71395100 0.2 1016515
03:000w71397100 0.9 1013562
06:00+1w71394100 0.1 1009874
09:00+1wnw81498100 0.6 1007844
12:000nw71298100 0.6 1007848
15:00+1nw61188100 0.8 1007979
18:00−1wnw5119667 0.2 1007494
21:00−2nw5139283 0.4 1009611
3 march, wed
wed300:00−3wnw5129566 0.0 1009417
03:00−3nw6129480 0.1 1010568
06:00−4nw6139299 0.2 1011683
09:00−4nnw7128699 0.3 1013853
12:00−3nw71183100 0.1 1014934
15:00−2nnw61182100 0.1 10151237
18:00−4nw4128778 0.1 1016393
21:00−6nw499471 0.2 1018240
4 march, thu
thu400:00−6wnw389587 0.1 1019232
03:00−6w479372 0.1 1018151
06:00−7wsw49940 0.0 1017169
09:00−5wsw6139325 0.0 1016380
12:00−2wsw7148795 0.0 1014566
15:00−1wsw8148697 0.0 1011653
18:00−2sw7168777 0.0 1009647
21:00−1wsw7178644 0.0 1007667